JCSAT 2B (41471 NORAD) Tracking and Keplerian Element Data

This shows tracking and keplerian element data for the satellite.

Feedback or suggestion? Click here.




ElementValue
Catalog41471
NameJCSAT 2B
Epoch Orbit808
Epoch Day197.75414844
Epoch Year2018
RAAN56.6233
Inclination0.0224
Eccentricity0.0002141
Argument of Perigee56.8115
Mean Anonmoly246.5878
Mean Motion1.0027312
Decay Rate-1.85E-06
L11 41471U 16028A 18197.75414844 -.00000185 00000-0 00000+0 0 9991
L22 41471 0.0224 56.6233 0002141 56.8115 246.5878 1.00273120 8088

Live tracking and technical data element details for JCSAT 2B (NORAD 41471). JCSAT 2B can be tracked NOW for your location showing map with azimuth and elevation plus other details from your city location.

Track the satellite on the map from your city or location and see movement details for azimuth, elevation, latitude, longitude, range, height, and movement on the map or in text.







IsCatalogInMostPopularTable: catalog: 41471, numindb: 55
Update: records affected: 1



GetName: 41471 JCSAT 2B

Hit Count: updated at: Fri, 20 Jul 2018 20:37:13 GMT